Regional Weather Roundup
Issued by NWS

Home | Current Version | Previous Version | Graphics & Text | Print | Product List | Glossary On
Versions: 1 2 3 4 5 6 7 8 9 10 11 12 13 14 15 16 17 18 19 20 21 22 23 24 25 26 27 28 29 30 31 32 33 34 35 36 37 38 39 40 41 42 43 44 45 46 47 48 49 50
000
ASUS43 KLMK 161502
RWRKY
KENTUCKY REGIONAL WEATHER ROUNDUP
NATIONAL WEATHER SERVICE LOUISVILLE KY
1100 AM EDT WED APR 16 2014

NOTE "FAIR" INDICATES FEW OR NO CLOUDS BELOW 12,000 FEET
WITH NO SIGNIFICANT WEATHER AND/OR OBSTRUCTIONS TO VISIBILITY.

KYZ001>023-026-027-061>063-070>075-161600-
WESTERN AND SOUTH CENTRAL KENTUCKY

CITY           SKY/WX    TMP DP  RH WIND       PRES   REMARKS
PADUCAH        SUNNY     47  26  44 SE10      30.33R
HENDERSON      MOSUNNY   39  23  52 SE8       30.36R WCI  34
OWENSBORO      SUNNY     40  22  49 SE9       30.37S WCI  34
HOPKINSVILLE   SUNNY     43  23  45 E15       30.34S
BOWLING GREEN  SUNNY     43  21  41 E15       30.36S
GLASGOW        NOT AVBL
$$

KYZ024-025-028>034-038-045-046-053-161600-
NORTH CENTRAL KENTUCKY

CITY           SKY/WX    TMP DP  RH WIND       PRES   REMARKS
LOUISVILLE/SDF SUNNY     41  16  36 E13       30.39R
LOUISVILLE/LOU SUNNY     42  16  34 E9        30.40R
FORT KNOX      SUNNY     40  20  43 E14       30.36R WCI  33
$$

KYZ035>037-039>044-047>052-055>060-089>105-161600-
NORTHEAST KENTUCKY

CITY           SKY/WX    TMP DP  RH WIND       PRES   REMARKS
LEXINGTON      SUNNY     40  18  41 E15       30.38R WCI  32
COVINGTON      PTSUNNY   38  15  39 E13       30.40S WCI  30
FRANKFORT      SUNNY     39  17  41 E15       30.38S WCI  31
$$

KYZ054-064>069-076>088-106>120-161600-
SOUTHEAST KENTUCKY

CITY           SKY/WX    TMP DP  RH WIND       PRES   REMARKS
JACKSON        SUNNY     37  17  44 VRB7      30.37S WCI  32
LONDON         SUNNY     40  19  43 NE7       30.36R
SOMERSET       NOT AVBL
MIDDLESBORO    NOT AVBL
MONTICELLO     SUNNY     42  24  49 E13       30.38R
$$




USA.gov is the U.S. government's official web portal to all federal, state and local government web resources and services.